Pine Bluffs Muni, Pine Bluffs, WY

10:51 AM MST on December 09, 2019 (GMT -0700)
Pine Bluffs Muni, Pine Bluffs

Weather History for K82V - July, 2019

Change the Weather History Date:

Monday, July 22, 2019

  Actual Average (KCYS) Record (KCYS)
Temperature  
Mean Temperature 70 °F -  
Max Temperature 80 °F 81 °F 96 °F (2005)
Min Temperature 59 °F 54 °F 44 °F (1978)
Cooling Degree Days 4    
Growing Degree Days 20 (Base 50)    
Moisture  
Dew Point 58 °F    
Average Humidity 77    
Maximum Humidity 100    
Minimum Humidity 47    
Precipitation  
Precipitation 0.00 in - - ()
Sea Level Pressure  
Sea Level Pressure 30.38 in    
Wind  
Wind Speed 9 mph (SE)    
Max Wind Speed 20 mph    
Max Gust Speed 26 mph    
Visibility 9 miles    
Events      
Averages and records for this station are not official NWS values.
T = Trace of Precipitation, MM = Missing Value Source: NWS Daily Summary

Daily Weather History Graph

Daily Weather History Graph

Search for Another Location

Airport or City:

Astronomy

Jul. 22, 2019 Rise Set
Actual Time 5:42 AM MDT 8:22 PM MDT
Civil Twilight 5:10 AM MDT 8:54 PM MDT
Nautical Twilight 4:30 AM MDT 9:34 PM MDT
Astronomical Twilight 3:44 AM MDT 10:19 PM MDT
Moon 11:41 PM MDT (7/22) 11:04 AM MDT (7/22)
Length of Visible Light 15h 44m
Length of Day
14h 40m
Waning Gibbous, 72% of the Moon is Illuminated
Jul 22
Waning Gibbous
Jul 24
Last Quarter
Jul 31
New
Aug 7
First Quarter
Aug 15
Full

Hourly Weather History & Observations

Time (MDT) Temp. Heat Index Dew Point Humidity Pressure Visibility Wind Dir Wind Speed Gust Speed Precip Events Conditions
12:15 AM 60.8 °F - 60.8 °F 100% 30.39 in 10.0 mi East 8.1 mph - N/A   Overcast
12:35 AM 60.8 °F - 60.8 °F 100% 30.40 in 10.0 mi East 6.9 mph - N/A   Overcast
12:55 AM 60.8 °F - 60.8 °F 100% 30.41 in 10.0 mi ESE 4.6 mph - N/A   Overcast
1:15 AM 60.8 °F - 60.8 °F 100% 30.40 in 10.0 mi ESE 9.2 mph - N/A   Overcast
1:35 AM 60.8 °F - 60.8 °F 100% 30.41 in 10.0 mi ESE 5.8 mph - N/A   Overcast
1:55 AM 60.8 °F - 60.8 °F 100% 30.40 in 10.0 mi ESE 5.8 mph - N/A   Overcast
2:15 AM 60.8 °F - 60.8 °F 100% 30.39 in 10.0 mi ESE 5.8 mph - N/A   Overcast
2:35 AM 60.8 °F - 60.8 °F 100% 30.38 in 10.0 mi East 5.8 mph - N/A   Overcast
2:55 AM 60.8 °F - 60.8 °F 100% 30.38 in 10.0 mi ESE 5.8 mph - N/A   Overcast
3:15 AM 60.8 °F - 60.8 °F 100% 30.39 in 5.0 mi ESE 8.1 mph - N/A   Overcast
3:35 AM 60.8 °F - 60.8 °F 100% 30.39 in 3.0 mi SE 6.9 mph - N/A   Overcast
3:55 AM 60.8 °F - 60.8 °F 100% 30.39 in 7.0 mi SE 6.9 mph - N/A   Overcast
4:15 AM 59.0 °F - 59.0 °F 100% 30.39 in 7.0 mi ESE 5.8 mph - N/A   Overcast
4:35 AM 59.0 °F - 59.0 °F 100% 30.39 in 2.5 mi SE 5.8 mph - N/A   Overcast
4:55 AM 59.0 °F - 59.0 °F 100% 30.39 in 2.5 mi ESE 3.5 mph - N/A   Overcast
5:15 AM 59.0 °F - 59.0 °F 100% 30.39 in 2.5 mi ESE 5.8 mph - N/A   Overcast
5:35 AM 59.0 °F - 59.0 °F 100% 30.39 in 3.0 mi East 6.9 mph - N/A   Overcast
5:55 AM 59.0 °F - 59.0 °F 100% 30.39 in 5.0 mi ESE 5.8 mph - N/A   Overcast
6:15 AM 59.0 °F - 59.0 °F 100% 30.40 in 7.0 mi ESE 4.6 mph - N/A   Overcast
6:35 AM 59.0 °F - 59.0 °F 100% 30.40 in 10.0 mi SE 5.8 mph - N/A   Overcast
6:55 AM 59.0 °F - 59.0 °F 100% 30.40 in 10.0 mi SE 6.9 mph - N/A   Overcast
7:15 AM 59.0 °F - 59.0 °F 100% 30.40 in 10.0 mi SE 8.1 mph - N/A   Overcast
7:35 AM 60.8 °F - 60.8 °F 100% 30.41 in 10.0 mi SE 9.2 mph - N/A   Overcast
7:55 AM 60.8 °F - 60.8 °F 100% 30.41 in 7.0 mi SE 6.9 mph - N/A   Overcast
8:15 AM 60.8 °F - 60.8 °F 100% 30.42 in 4.0 mi SSE 8.1 mph - N/A   Overcast
8:35 AM 60.8 °F - 60.8 °F 100% 30.42 in 7.0 mi South 8.1 mph - N/A   Overcast
8:55 AM 62.6 °F - 60.8 °F 94% 30.42 in 10.0 mi SE 10.4 mph 16.1 mph N/A   Overcast
9:15 AM 62.6 °F - 60.8 °F 94% 30.42 in 10.0 mi SSE 11.5 mph - N/A   Overcast
9:35 AM 62.6 °F - 60.8 °F 94% 30.41 in 10.0 mi SSE 10.4 mph - N/A   Overcast
9:55 AM 64.4 °F - 60.8 °F 88% 30.41 in 10.0 mi South 11.5 mph - N/A   Overcast
10:15 AM 64.4 °F - 60.8 °F 88% 30.41 in 10.0 mi SSE 11.5 mph 17.3 mph N/A   Overcast
10:35 AM 64.4 °F - 60.8 °F 88% 30.41 in 10.0 mi SSE 12.7 mph 17.3 mph N/A   Overcast
10:55 AM 68.0 °F - 59.0 °F 73% 30.41 in 10.0 mi SSE 13.8 mph 17.3 mph N/A   Overcast
11:15 AM 68.0 °F - 59.0 °F 73% 30.40 in 10.0 mi SSE 12.7 mph - N/A   Overcast
11:35 AM 69.8 °F - 59.0 °F 68% 30.41 in 10.0 mi SE 10.4 mph 18.4 mph N/A   Overcast
11:55 AM 71.6 °F - 59.0 °F 64% 30.40 in 10.0 mi SSE 10.4 mph 19.6 mph N/A   Overcast
12:15 PM 71.6 °F - 59.0 °F 64% 30.39 in 10.0 mi SSE 10.4 mph 20.7 mph N/A   Overcast
12:35 PM 71.6 °F - 59.0 °F 64% 30.39 in 10.0 mi SE 12.7 mph 18.4 mph N/A   Overcast
12:55 PM 73.4 °F - 57.2 °F 57% 30.38 in 10.0 mi SE 13.8 mph 18.4 mph N/A   Mostly Cloudy
1:15 PM 73.4 °F - 57.2 °F 57% 30.38 in 10.0 mi SSE 9.2 mph 18.4 mph N/A   Mostly Cloudy
1:35 PM 73.4 °F - 59.0 °F 61% 30.37 in 10.0 mi SSE 10.4 mph 18.4 mph N/A   Overcast
1:55 PM 77.0 °F - 59.0 °F 54% 30.36 in 10.0 mi South 11.5 mph 18.4 mph N/A   Mostly Cloudy
2:15 PM 77.0 °F - 59.0 °F 54% 30.36 in 10.0 mi SE 12.7 mph 19.6 mph N/A   Mostly Cloudy
2:35 PM 77.0 °F - 57.2 °F 50% 30.36 in 10.0 mi ESE 12.7 mph 19.6 mph N/A   Mostly Cloudy
2:55 PM 78.8 °F - 59.0 °F 51% 30.36 in 10.0 mi ESE 16.1 mph 19.6 mph N/A   Mostly Cloudy
3:15 PM 77.0 °F - 57.2 °F 50% 30.36 in 10.0 mi ESE 12.7 mph 19.6 mph N/A   Mostly Cloudy
3:35 PM 80.6 °F 81.1 °F 59.0 °F 48% 30.35 in 10.0 mi ESE 13.8 mph 17.3 mph N/A   Scattered Clouds
3:55 PM 78.8 °F - 57.2 °F 47% 30.35 in 10.0 mi SE 15.0 mph 21.9 mph N/A   Mostly Cloudy
4:15 PM 78.8 °F - 57.2 °F 47% 30.35 in 10.0 mi ESE 15.0 mph 23.0 mph N/A   Mostly Cloudy
4:35 PM 77.0 °F - 57.2 °F 50% 30.34 in 10.0 mi SSE 9.2 mph 20.7 mph N/A   Scattered Clouds
4:55 PM 78.8 °F - 57.2 °F 47% 30.33 in 10.0 mi SE 13.8 mph 19.6 mph N/A   Scattered Clouds
5:15 PM 77.0 °F - 55.4 °F 47% 30.33 in 10.0 mi SE 13.8 mph 24.2 mph N/A   Scattered Clouds
5:35 PM 77.0 °F - 57.2 °F 50% 30.33 in 10.0 mi SE 18.4 mph 26.5 mph N/A   Scattered Clouds
5:55 PM 77.0 °F - 57.2 °F 50% 30.33 in 10.0 mi SE 17.3 mph 21.9 mph N/A   Clear
6:15 PM 75.2 °F - 55.4 °F 50% 30.32 in 10.0 mi ESE 18.4 mph 24.2 mph N/A   Clear
6:35 PM 75.2 °F - 57.2 °F 53% 30.32 in 10.0 mi ESE 18.4 mph 24.2 mph N/A   Clear
6:55 PM 73.4 °F - 55.4 °F 53% 30.32 in 10.0 mi ESE 13.8 mph 24.2 mph N/A   Clear
7:15 PM 73.4 °F - 55.4 °F 53% 30.33 in 10.0 mi ESE 19.6 mph - N/A   Clear
7:35 PM 71.6 °F - 55.4 °F 57% 30.34 in 10.0 mi SE 16.1 mph 23.0 mph N/A   Clear
7:55 PM 71.6 °F - 55.4 °F 57% 30.34 in 10.0 mi ESE 13.8 mph 23.0 mph N/A   Clear
8:15 PM 69.8 °F - 55.4 °F 60% 30.35 in 10.0 mi ESE 11.5 mph 16.1 mph N/A   Clear
8:35 PM 68.0 °F - 55.4 °F 64% 30.35 in 10.0 mi ESE 9.2 mph 18.4 mph N/A   Clear
8:55 PM 68.0 °F - 55.4 °F 64% 30.35 in 10.0 mi SE 9.2 mph - N/A   Clear
9:15 PM 66.2 °F - 55.4 °F 68% 30.36 in 10.0 mi ESE 11.5 mph - N/A   Clear
9:35 PM 64.4 °F - 55.4 °F 73% 30.37 in 10.0 mi ESE 11.5 mph 17.3 mph N/A   Clear
9:55 PM 64.4 °F - 55.4 °F 73% 30.37 in 10.0 mi ESE 11.5 mph 16.1 mph N/A   Clear
10:15 PM 64.4 °F - 55.4 °F 73% 30.38 in 10.0 mi SE 13.8 mph 20.7 mph N/A   Clear
10:35 PM 64.4 °F - 55.4 °F 73% 30.37 in 10.0 mi SE 12.7 mph 20.7 mph N/A   Clear
10:55 PM 62.6 °F - 55.4 °F 77% 30.37 in 10.0 mi ESE 13.8 mph 20.7 mph N/A   Clear
11:15 PM 62.6 °F - 55.4 °F 77% 30.37 in 10.0 mi SE 12.7 mph 20.7 mph N/A   Clear
11:35 PM 62.6 °F - 53.6 °F 72% 30.37 in 10.0 mi SE 13.8 mph 19.6 mph N/A   Clear
11:55 PM 62.6 °F - 53.6 °F 72% 30.38 in 10.0 mi SE 13.8 mph 18.4 mph N/A   Clear